This demonstration page uses our WeatherBlox Daily Observations layout. Learn more.

39.08367, -84.50855

Hourly Observations for January 2, 2020

Temp ( °F °C ) Dew Point ( °F °C ) Humidity (%) Winds ( mph kmh ) Pressure ( in mb ) Visibility ( mi km ) Precip ( " mm )
12:53 am 00:53 Clear 35 1.7 23 -5 61 61 Calm 29.87 1011 10 16.0934 0 0
1:53 am 01:53 Clear 32 0 24 -4.4 73 73 Calm 29.86 1011 10 16.0934 0 0
2:53 am 02:53 Clear 31 -0.6 23 -5 72 72 SSW 8 13 29.87 1011 10 16.0934 0 0
3:53 am 03:53 Clear 32 0 25 -3.9 75 75 W 5 7 29.85 1011 10 16.0934 0 0
4:53 am 04:53 Clear 31 -0.6 24 -4.4 76 76 Calm 29.85 1011 10 16.0934 0 0
5:53 am 05:53 Mostly Cloudy 29 -1.7 25 -3.9 85 85 Calm 29.84 1011 10 16.0934 0 0
6:53 am 06:53 Cloudy 34 1.1 28 -2.2 79 79 Calm 29.83 1010 10 16.0934 0 0
7:53 am 07:53 Cloudy 36 2.2 28 -2.2 73 73 WSW 5 7 29.83 1010 10 16.0934 0 0
8:53 am 08:53 Cloudy 40 4.4 30 -1.1 68 68 W 5 7 29.83 1010 10 16.0934 0 0
9:53 am 09:53 Cloudy 44 6.7 30 -1.1 58 58 WSW 3 6 29.84 1011 10 16.0934 0 0
10:53 am 10:53 Cloudy 47 8.3 31 -0.6 54 54 S 8 13 29.84 1011 10 16.0934 0 0
11:39 am 11:39 Cloudy 50 10 32 0 50 50 SSW 12 19 29.82 1010 10 16.0934 0 0
11:53 am 11:53 Cloudy 50 10 32 0 50 50 S 15 24 29.81 1010 10 16.0934 0 0
12:53 pm 12:53 Cloudy 51 10.6 34 1.1 52 52 SSW 8 13 29.8 1009 10 16.0934 0 0
1:53 pm 13:53 Cloudy 51 10.6 38 3.3 61 61 SSW 8 13 29.78 1008 10 16.0934 0 0
2:13 pm 14:13 Cloudy 51 10.6 37 2.8 59 59 SSW 10 17 29.77 1008 10 16.0934 0 0
2:53 pm 14:53 Cloudy 51 10.6 42 5.6 71 71 SSW 14 22 29.76 1008 10 16.0934 0 0
3:53 pm 15:53 Cloudy 50 10 44 6.7 80 80 SSW 10 17 29.78 1009 10 16.0934 0 0
4:53 pm 16:53 Cloudy with Mist and Fog 48 8.9 46 7.8 93 93 S 9 15 29.77 1008 5 8.0467 0 0
5:33 pm 17:33 Cloudy with Rain 48 8.9 47 8.3 96 96 SSW 3 6 29.78 1008 2 3.21868 0.03 0.762
5:37 pm 17:37 Cloudy with Heavy Rain 48 8.9 47 8.3 96 96 SW 3 6 29.79 1009 2 3.21868 0.05 1.27
5:53 pm 17:53 Cloudy with Heavy Rain 48 8.9 47 8.3 96 96 Calm 29.78 1008 2 3.21868 0.11 2.794
6:53 pm 18:53 Cloudy with Light Rain 48 8.9 47 8.3 96 96 WSW 5 7 29.79 1009 2 3.21868 0.2 5.08
7:53 pm 19:53 Cloudy with Light Rain 48 8.9 47 8.3 96 96 S 7 11 29.77 1008 5 8.0467 0.03 0.762
8:53 pm 20:53 Cloudy with Light Rain 47 8.3 47 8.3 100 100 SSW 3 6 29.77 1008 5 8.0467 0.01 0.254
9:53 pm 21:53 Cloudy with Light Rain 47 8.3 46 7.8 97 97 W 3 6 29.77 1008 3 4.82802 0.02 0.508
10:53 pm 22:53 Cloudy with Light Rain 47 8.3 46 7.8 97 97 Calm 29.75 1007 3 4.82802 0.02 0.508
11:09 pm 23:09 Cloudy with Light Rain 47 8.3 46 7.8 97 97 Calm 29.75 1007 2 3.21868 0.01 0.254
11:16 pm 23:16 Cloudy with Light Rain 47 8.3 46 7.8 97 97 Calm 29.75 1007 1.25 2.011675 0.01 0.254
11:29 pm 23:29 Cloudy with Light Rain 47 8.3 46 7.8 97 97 Calm 29.75 1007 2.5 4.02335 0.01 0.254
11:53 pm 23:53 Cloudy with Light Rain 47 8.3 46 7.8 97 97 W 3 6 29.74 1007 1.75 2.816345 0.01 0.254

Powered by AerisWeather